Location: Banksville Park
(38.5557°N, 75.1182°W)
Time: 03:57:41
(UTC+00:00)

Cosmos 1727 Rocket - Pass Details

Date: 19 September 2020
Orbit: 960 x 997 km, 82.9° (Epoch: 19 October)

Event Time Altitude Azimuth Distance (km) Brightness Sun altitude
Rises 09:09:24 0° 185° (S) 3,700 6.8 -19.4°
Reaches altitude 10° 09:11:55 10° 186° (S) 2,755 6.1 -18.9°
Maximum altitude 09:18:16 88° 277° (W) 1,002 4.0 -17.7°
Drops below altitude 10° 09:24:38 10° 6° (N) 2,763 6.6 -16.5°
Sets 09:27:10 0° 7° (N) 3,711 7.3 -16.0°
